IRIDIUM 33 DEB, 34071

Orbit data source: Space-Track

IRIDIUM 33 DEB, 34071 is space debris in LEO originally from a launch on Sun, 14 Sep 1997 UTC launched from the Tyuratam Missile And Space Complex (TTMTR). The debris from Iridium 33, an American commercial communications satellite, has been tracked extensively since its accidental collision with the defunct Russian satellite Cosmos 2251 in 2009. This event, occurring at high speed in low Earth orbit (LEO), generated thousands of pieces of space debris, significantly increasing the risk of further collisions. The Iridium 33 debris cloud has impacted space traffic management and orbital debris mitigation strategies, making it a subject of ongoing study in space situational awareness.

Loading next visibility...
Identifier
34071, 1997-051CE
Orbit
LEO
Country
Flag of USUS
Related business
Manufacturer
Unknown
Mission
Spacecraft
Bus & Motor
Unknown
Mass
Unknown
Launch date (UTC)
1997-09-14 (29 years ago)
Launch vehicle
Unknown
Launch site
Tyuratam Missile And Space Complex (TTMTR)
Object type
Payload
Rocket body
Debris
Shape & HBR
Unknown shape, 0.5 m
Radar Cross Section
Medium (>0.1 m² and <1 m²)

Expand to show TLE details & history
Last TLE update: 10 hours ago

TLE from 10 hours ago
0 IRIDIUM 33 DEB
1 34071U 97051CE  26208.90065908  .00001686  00000-0  42561-3 0  9994
2 34071  86.3431 279.0051 0009723  77.9837 282.2457 14.50490783916263
Epoch: 2026-07-27T21:36Z
TLE epoch observation values (Epoch: 2026-07-27T21:36:56.944Z)
Latitude
-0.00002°
Longitude
9.19023°
Altitude
725.661 km
Speed
7.493 km/s
True Right ascension
18h 36m 01s
True Declination
0° 00' 00"
Sunlit
Object was in full shadow at epoch
Visualization orbit readout
Latitude
Unknown
Longitude
Unknown
Altitude
Unknown
Speed
Unknown
Apparent Right ascension
Unknown
Apparent Declination
Unknown
Sunlit
N/A
Visualization observer readout
Local Sidereal Time
20:51:59
Azimuth
Unknown
Elevation
Unknown
Doppler factor
Unknown
Orbital elements
Apogee altitude
727.891 km
Perigee altitude
714.086 km
Semi-major axis
7,099.126 km
Eccentricity
0.00097
Inclination
86.3431°
RAAN
279.0051°
Arg. of periapsis
77.9837°
True anomaly
282.13679°
Mean anomaly
282.2457°
Eccentric anomaly
282.19125°
Mean motion
3.62857 °/min
Orbital period
99.21 mins
BSTAR
0.00042561
Loading maneuver chart data...
Computing Atmospheric mass density...
Loading historical data...
Loading historical data...
Loading historical data...
Loading historical data...
Loading historical data...
Loading historical data...
Loading historical data...

Documentation

Showing up to 5 results
|